TimeEST,TemperatureF,Dew PointF,Humidity,Sea Level PressureIn,VisibilityMPH,Wind Direction,Wind SpeedMPH,Gust SpeedMPH,PrecipitationIn,Events,Conditions,WindDirDegrees,DateUTC
12:56 AM,26.1,12.0,55,30.17,10.0,West,8.1,-,N/A,,Mostly Cloudy,270,2013-02-17 05:56:00
1:56 AM,25.0,12.9,60,30.17,10.0,West,8.1,-,N/A,,Mostly Cloudy,270,2013-02-17 06:56:00
2:56 AM,24.1,12.0,60,30.17,10.0,West,9.2,-,N/A,,Scattered Clouds,270,2013-02-17 07:56:00
3:56 AM,23.0,12.9,65,30.18,10.0,West,8.1,-,N/A,,Clear,280,2013-02-17 08:56:00
4:56 AM,21.9,12.9,68,30.19,10.0,WNW,5.8,-,N/A,,Mostly Cloudy,290,2013-02-17 09:56:00
5:56 AM,21.9,12.9,68,30.20,10.0,WNW,5.8,-,N/A,,Partly Cloudy,300,2013-02-17 10:56:00
6:56 AM,19.4,12.2,74,30.21,10.0,WNW,5.8,-,N/A,,Clear,290,2013-02-17 11:56:00
7:56 AM,21.0,14.0,74,30.25,10.0,NW,3.5,-,N/A,,Clear,310,2013-02-17 12:56:00
8:56 AM,25.0,14.0,63,30.27,10.0,North,3.5,-,N/A,,Clear,360,2013-02-17 13:56:00
9:56 AM,27.0,14.0,58,30.28,10.0,NNW,3.5,-,N/A,,Partly Cloudy,330,2013-02-17 14:56:00
10:56 AM,28.9,14.0,54,30.28,10.0,NE,3.5,-,N/A,,Clear,50,2013-02-17 15:56:00
11:56 AM,32.0,12.0,44,30.28,10.0,NW,4.6,-,N/A,,Partly Cloudy,310,2013-02-17 16:56:00
12:56 PM,35.1,14.0,42,30.26,10.0,NW,6.9,-,N/A,,Scattered Clouds,310,2013-02-17 17:56:00
1:56 PM,37.0,12.9,37,30.24,10.0,NW,8.1,16.1,N/A,,Partly Cloudy,310,2013-02-17 18:56:00
2:56 PM,37.9,12.9,36,30.23,10.0,West,5.8,-,N/A,,Scattered Clouds,270,2013-02-17 19:56:00
3:56 PM,39.9,12.0,32,30.22,10.0,West,9.2,-,N/A,,Scattered Clouds,270,2013-02-17 20:56:00
4:56 PM,39.9,10.9,31,30.22,10.0,Variable,3.5,-,N/A,,Partly Cloudy,0,2013-02-17 21:56:00
5:56 PM,37.9,10.9,33,30.21,10.0,SW,4.6,-,N/A,,Mostly Cloudy,220,2013-02-17 22:56:00
6:56 PM,37.0,10.9,34,30.21,10.0,Calm,Calm,-,N/A,,Partly Cloudy,0,2013-02-17 23:56:00
7:56 PM,34.0,12.0,40,30.20,10.0,ESE,4.6,-,N/A,,Clear,120,2013-02-18 00:56:00
8:56 PM,32.0,12.9,45,30.20,10.0,ESE,4.6,-,N/A,,Clear,120,2013-02-18 01:56:00
9:56 PM,30.9,14.0,50,30.20,10.0,ESE,6.9,-,N/A,,Clear,120,2013-02-18 02:56:00
10:56 PM,30.9,14.0,50,30.21,10.0,SE,4.6,-,N/A,,Clear,140,2013-02-18 03:56:00
11:56 PM,30.0,15.1,54,30.20,10.0,SE,6.9,-,N/A,,Clear,140,2013-02-18 04:56:00